Probability
0 0 0 0 0 0 0 0 0 0 0 0 0 0 0 0 0 0 0 0 0 0 0 0 0 0 0 0 0 0 0 0 0 0 0 0 0 0 0 0 0 0 0
0 0 0 0 0 0 0 0 0 0 0 0 0 0 0 0 0 0 0 0 0 0 0 0 0 0 0 0 0 0 0 0 0 0 0 0 0 0 0 0 0 0 0
0 0 0 0 0 1 1 1 1 0 0 0 0 0 0 0 0 0 0 0 0 0 0 0 0 0 0 0 0 0 0 0 0 0 0 0 0 0 0 0 0 0 0
0 0 0 0 1 2 2 2 2 1 0 0 0 0 0 0 0 0 0 0 0 0 0 0 0 0 0 0 0 0 0 0 0 0 0 0 0 0 0 0 0 0 0
0 0 0 0 1 2 3 3 3 1 0 0 0 0 0 0 0 0 0 0 0 0 0 0 0 0 0 0 0 0 0 0 0 0 0 0 0 0 0 0 0 0 0
0 0 0 0 1 2 3 3 3 2 1 1 1 0 0 0 0 0 0 0 0 0 0 0 0 0 0 0 0 0 0 0 0 0 0 0 0 0 0 0 0 0 0
0 0 0 0 0 1 2 3 3 3 3 2 2 1 0 0 0 0 0 0 0 0 0 0 0 0 0 0 0 0 0 0 0 0 0 0 0 0 0 0 0 0 0
0 0 0 0 0 0 1 2 3 3 3 3 3 2 1 0 0 0 0 0 0 0 0 0 0 0 0 0 0 0 0 0 0 0 0 0 0 0 0 0 0 0 0
0 0 0 0 0 0 0 1 2 3 3 3 3 2 1 0 0 0 0 0 0 0 0 0 0 0 0 0 0 0 0 0 0 0 0 0 0 0 0 0 0 0 0
0 0 0 0 0 0 0 0 1 2 3 3 3 2 1 0 0 0 0 0 0 0 0 0 0 0 0 0 0 0 0 0 0 0 0 0 0 0 0 0 0 0 0
0 0 0 0 0 0 0 0 0 1 1 2 2 1 0 0 0 0 0 0 0 0 0 0 0 0 0 0 0 0 0 0 0 0 0 0 0 0 0 0 0 0 0
0 0 0 0 0 0 0 0 0 0 0 1 1 1 0 0 0 0 0 0 0 0 0 0 0 0 0 0 0 0 0 0 0 0 0 0 0 0 0 0 0 0 0
0 0 0 0 0 0 0 0 0 0 0 0 0 0 0 0 0 0 0 0 0 0 0 0 0 0 0 0 0 0 0 0 0 0 0 0 0 0 0 0 0 0 0
0 0 0 0 0 0 0 0 1 1 1 0 0 0 0 0 0 0 0 0 0 0 0 0 0 0 0 0 0 0 0 0 0 0 0 0 0 0 0 0 0 0 0
0 0 0 0 0 0 0 0 1 2 2 1 0 0 0 0 0 0 0 0 0 0 0 0 0 0 0 0 0 0 0 0 0 0 0 0 0 0 0 0 0 0 0
0 0 0 0 0 0 0 0 0 1 2 2 1 0 0 0 0 0 0 0 0 0 0 0 0 0 0 0 0 0 0 0 0 0 0 0 0 0 0 0 0 0 0
0 0 0 0 0 0 0 0 0 0 1 2 1 0 0 0 0 0 0 0 0 0 0 0 0 0 0 0 0 0 0 0 0 0 0 0 0 0 0 0 0 0 0
0 0 0 0 0 0 0 0 0 0 1 2 2 1 0 0 0 0 0 0 0 0 0 0 0 0 0 0 0 0 0 0 0 0 0 0 0 0 0 0 0 0 0
0 0 0 0 0 0 0 0 0 0 0 1 2 1 0 0 0 0 0 0 0 0 0 0 0 0 0 0 0 0 0 0 0 0 0 0 0 0 0 0 0 0 0
0 0 0 0 0 0 0 0 0 0 0 1 2 2 1 0 0 0 0 0 0 0 0 0 0 0 0 0 0 0 0 0 0 0 0 0 0 0 0 0 0 0 0
0 0 0 0 0 0 0 0 0 0 0 1 2 3 2 1 0 0 0 0 0 0 0 0 0 0 0 0 0 0 0 0 0 0 0 0 0 0 0 0 0 0 0
0 0 0 0 0 0 0 0 0 0 0 0 1 3 3 1 0 0 0 0 0 0 0 0 0 0 0 0 0 0 0 0 0 0 0 0 0 0 0 0 0 0 0
0 0 0 0 0 0 0 0 0 0 0 0 1 2 3 2 1 0 0 0 0 0 0 0 0 0 0 0 0 0 0 0 0 0 0 0 0 0 0 0 0 0 0
0 0 0 0 0 0 0 1 1 0 0 0 1 2 3 3 2 1 0 0 0 0 0 0 0 0 0 0 0 0 0 0 0 0 0 0 0 0 0 0 0 0 0
0 0 0 0 0 0 1 2 1 0 0 0 1 2 3 3 3 2 1 0 0 0 0 0 0 0 0 0 0 0 0 0 0 0 0 0 0 0 0 0 0 0 0
0 0 0 0 0 1 2 2 1 0 0 0 1 2 3 3 3 3 2 1 0 0 0 0 0 0 0 0 0 0 0 0 0 0 0 0 0 0 0 0 0 0 0
Wind_Speed
3 4 9 12 13 12 12 12 12 11 11 11 11 11 11 11 11 11 11 12 12 12 12 12 12 12 12 12 12 12 11 11 11 11 10 10 11 11 11 10 9 6 11
6 7 9 11 12 12 12 12 11 11 11 11 11 11 11 11 11 11 10 10 11 11 11 11 11 11 11 11 11 10 10 10 9 9 9 8 8 9 9 8 8 5 9
7 7 8 10 11 12 11 11 11 11 10 10 10 10 11 11 10 10 10 9 9 9 10 10 10 10 10 10 9 9 9 8 8 8 7 4 4 6 7 7 7 7 7
8 6 7 9 10 11 11 11 10 10 10 10 10 10 10 10 10 9 8 8 8 8 8 9 9 9 8 8 8 8 7 7 7 7 4 3 3 4 5 5 5 5 5
6 5 6 9 10 11 11 10 10 9 9 9 10 9 9 9 9 8 8 7 7 7 7 7 7 7 7 6 6 6 6 6 7 5 3 3 3 2 3 3 4 4 4
5 5 6 8 10 10 10 10 9 9 8 8 9 9 8 8 8 7 7 6 6 5 5 6 6 5 5 5 5 5 5 6 5 3 2 3 3 3 2 2 2 2 2
5 4 5 7 8 9 9 9 9 8 8 8 8 8 7 7 7 7 6 5 5 5 4 4 4 4 4 3 4 4 4 4 3 2 2 2 3 3 2 2 2 2 2
5 4 4 6 6 6 7 7 7 7 7 7 7 7 6 6 6 6 6 5 5 4 3 3 3 3 2 2 2 3 4 3 3 2 2 2 4 4 3 3 2 2 3
5 4 3 3 4 5 5 5 5 5 6 6 6 5 5 5 5 4 4 4 4 3 3 2 2 2 2 1 1 2 2 3 2 1 2 2 4 5 4 4 4 4 4
4 3 3 3 3 3 3 4 4 4 5 5 5 5 5 4 4 3 3 3 3 3 2 2 1 2 1 1 0 1 1 2 1 1 1 3 6 6 5 5 5 4 4
2 2 2 2 2 2 2 3 3 3 4 4 4 5 4 2 2 2 2 3 3 2 2 2 2 2 1 1 1 1 1 0 1 1 2 4 6 6 6 6 6 5 5
3 2 1 2 2 2 1 2 1 1 1 1 1 2 2 1 1 1 2 3 3 2 2 3 2 2 1 1 1 1 1 1 1 2 2 6 6 7 7 7 7 6 6
2 2 1 2 2 2 1 1 1 1 1 1 1 1 1 1 0 0 0 1 1 1 1 2 1 1 1 1 1 1 2 2 1 2 3 6 7 7 8 8 7 6 6
0 2 1 2 2 2 1 1 1 1 1 1 1 1 1 1 0 0 1 1 1 1 1 1 1 2 2 2 2 3 3 2 2 2 3 6 8 8 8 8 8 7 6
0 1 1 2 2 2 2 1 2 2 2 2 1 1 2 1 1 1 1 1 1 1 1 2 2 2 2 2 2 3 4 4 3 3 3 5 7 8 9 9 8 8 7
1 2 2 2 2 2 2 2 2 2 2 2 2 2 3 2 2 2 1 1 2 2 2 2 3 3 3 2 3 3 4 4 4 4 3 4 6 7 8 9 9 8 8
2 2 2 2 1 2 2 2 2 2 2 2 2 2 3 2 2 2 2 2 2 2 2 2 2 2 2 2 4 4 4 4 4 4 4 3 3 5 7 9 9 9 9
4 3 2 1 1 1 1 1 1 1 2 2 2 2 3 3 3 2 2 2 2 1 2 2 2 2 3 3 3 4 4 4 5 4 4 3 3 3 4 7 8 9 9
5 4 3 2 2 1 1 1 0 0 0 1 1 1 2 3 3 3 3 2 2 2 2 2 2 2 3 3 4 4 4 4 4 4 3 4 4 3 3 4 6 7 9
5 5 4 4 4 2 1 1 1 1 1 0 0 1 1 1 2 2 2 2 1 1 2 2 3 3 3 3 3 4 4 4 3 3 3 3 3 3 3 3 3 4 7
7 6 5 5 5 3 2 1 1 1 1 1 1 2 2 2 1 1 1 1 1 2 2 3 3 3 3 2 2 4 4 4 4 3 3 3 3 3 2 3 2 2 3
7 7 6 5 5 4 2 1 1 1 1 2 2 3 4 3 3 1 1 1 1 1 2 2 2 2 2 2 2 2 3 3 3 4 3 3 3 2 3 3 2 3 3
7 7 6 6 5 4 4 2 3 2 2 3 4 3 4 4 4 3 2 1 1 1 1 2 2 2 3 2 2 2 2 4 3 3 2 3 3 2 3 3 3 3 3
5 6 6 6 6 5 4 3 4 3 2 2 2 2 4 5 5 4 4 3 2 1 2 2 2 2 2 2 2 2 3 2 3 3 2 2 3 3 4 3 3 3 2
5 5 5 6 6 6 5 4 3 2 2 2 2 3 3 4 5 5 5 4 4 3 3 3 2 2 2 3 2 2 3 2 2 3 5 3 3 3 3 4 3 3 2
6 6 5 6 7 7 6 5 4 3 3 4 4 3 3 2 3 5 5 4 4 4 4 4 3 3 3 3 3 2 1 2 2 3 5 5 5 3 3 3 3 3 2
Wind_Direction
176 174 167 157 151 145 140 135 129 124 121 119 117 116 116 111 108 107 104 104 100 98 96 95 93 91 90 89 86 82 79 78 75 74 75 78 78 78 77 74 70 60 70
152 158 156 154 152 147 142 139 135 133 130 125 122 118 117 115 110 108 105 103 101 100 98 96 94 92 90 89 86 83 80 77 72 68 65 64 71 77 79 76 74 70 70
137 148 149 146 146 144 142 141 141 139 135 132 128 124 120 118 115 112 110 107 106 105 103 100 97 94 91 89 86 83 81 78 72 62 52 35 45 74 80 79 72 67 65
136 139 143 144 142 141 140 141 143 143 141 139 135 131 128 125 121 118 115 112 110 110 110 106 103 100 94 90 86 82 79 77 67 58 43 24 12 67 79 78 71 65 60
126 130 139 143 145 144 142 142 144 144 143 143 140 136 135 134 131 128 124 120 115 112 113 112 108 105 98 91 85 81 75 74 63 54 34 17 1 33 63 69 70 65 55
113 121 140 145 149 149 148 149 150 149 148 147 144 141 139 138 139 138 134 129 125 119 117 113 108 106 98 90 84 79 72 68 62 47 24 4 347 356 38 52 56 54 42
115 111 137 141 149 152 154 156 155 155 154 152 150 146 143 141 142 141 139 135 130 123 121 122 118 110 102 90 82 76 68 66 63 42 18 350 332 347 6 23 30 22 10
125 116 128 141 141 148 154 156 158 160 154 152 149 145 143 143 146 145 143 142 140 137 130 137 134 122 112 94 77 71 64 56 54 28 354 326 316 328 329 329 333 332 328
114 114 117 132 140 145 147 155 158 158 153 153 152 148 145 145 151 147 149 154 154 155 158 162 162 151 149 122 76 69 60 49 55 352 326 319 314 317 316 316 311 307 304
107 118 120 119 124 137 148 157 161 165 159 156 154 152 148 151 156 157 165 176 185 185 182 190 201 221 222 235 352 36 30 41 19 318 304 299 306 307 309 311 306 295 294
134 133 130 134 127 136 153 166 168 176 173 166 160 163 156 151 158 175 198 212 216 213 225 230 237 246 250 260 276 308 345 326 280 280 280 291 300 300 301 302 302 296 292
185 180 153 160 160 151 169 151 155 158 159 142 129 148 148 149 167 190 223 231 238 239 248 252 262 266 257 284 283 291 276 266 265 266 271 284 295 298 297 294 294 294 291
199 189 187 185 178 172 163 143 139 127 118 113 130 145 134 137 136 186 212 258 261 254 259 263 276 270 246 241 257 258 253 255 252 262 270 279 286 291 291 289 290 290 289
199 216 209 199 186 190 158 149 150 146 159 178 176 151 146 156 184 210 225 241 258 273 262 255 247 253 253 250 246 252 254 248 248 254 263 270 277 283 285 286 286 286 284
301 267 245 202 197 187 176 183 180 186 186 190 187 194 178 180 205 212 231 239 243 248 252 255 253 254 253 255 255 254 255 252 251 249 262 267 271 277 280 283 284 282 281
287 269 259 219 210 196 191 201 201 195 192 192 200 213 203 200 199 203 228 240 250 239 236 240 247 252 258 256 263 259 258 259 256 252 254 266 265 268 274 279 280 280 279
322 302 283 243 218 206 213 214 216 207 197 208 216 215 213 210 208 206 213 231 249 248 240 243 259 255 262 268 270 266 258 255 252 253 253 253 258 264 267 273 275 276 277
0 350 341 334 307 254 243 234 235 219 206 219 220 218 218 218 213 208 218 230 237 228 235 239 247 256 258 260 265 267 261 257 251 249 251 248 246 253 261 265 265 268 273
8 6 7 360 352 310 300 308 331 19 240 248 241 240 234 227 218 211 220 234 228 227 235 245 252 251 261 266 265 265 262 258 253 249 252 250 244 243 248 262 262 262 267
15 16 15 8 4 357 17 23 16 7 325 347 341 303 295 257 236 218 226 236 225 239 257 254 257 252 253 266 270 272 266 258 251 250 250 252 254 252 254 262 268 274 269
17 18 17 13 8 14 17 11 340 304 319 6 8 14 358 337 311 232 271 255 225 229 253 264 265 259 258 261 267 283 272 252 244 257 243 241 249 254 262 261 258 270 281
17 12 14 10 10 10 1 338 334 336 350 32 22 21 11 2 355 328 309 293 294 270 273 272 279 277 270 239 236 281 293 291 271 254 239 240 251 265 270 269 266 268 268
15 10 7 5 6 5 5 20 27 36 29 28 13 7 2 2 5 0 347 326 312 281 282 284 282 268 272 262 229 224 256 264 301 277 255 255 261 269 269 270 265 267 268
7 7 8 6 14 13 18 33 45 38 22 348 349 358 6 9 5 1 359 356 341 321 305 299 301 282 267 271 274 247 255 264 268 291 288 280 280 273 268 271 269 267 258
7 14 12 15 18 20 23 31 43 36 14 5 13 21 14 11 9 6 3 359 354 342 331 323 306 297 276 265 269 276 268 274 265 274 285 292 293 276 273 268 262 262 261
13 16 16 22 20 18 20 23 35 36 26 22 9 4 358 359 3 7 3 2 356 349 343 335 322 304 285 280 272 269 266 261 267 265 274 288 285 277 269 258 254 256 262